Voltar ao catálogo

SL-12 DEB

LostHEO
NORAD 28985·DEBRIS·🇷🇺 Russia

Lançado Jul 30, 1992 de Baikonur Cosmodrome

Loading…

Próximas Passagens (próximas 24 horas)

TLE

ObsoletoSource: Space-Track

Época: Jul 23, 2017, 18:33 UTC

1 28985U 92047AN  17204.77302166 -.00000011  00000-0  00000-0 0  9993
2 28985  64.0875 130.0837 3771459 322.9356  16.1756  6.52731338268361

Acompanhe SL-12 DEB em tempo real com AllMySat

Download on the App Store